DRAGON CRS-19 is no longer on orbit DRAGON CRS-19 is classified as:
1 44821U 19083A 20006.55702477 +.00001059 +00000-0 +26955-4 0 9991 2 44821 051.6453 073.1830 0005159 105.4393 049.5527 15.49542542004942